Regional Weather Roundup
Issued by NWS

Home | Current Version | Previous Version | Text Only | Print | Product List | Glossary On
Versions: 1 2 3 4 5 6 7 8 9 10 11 12 13 14 15 16 17 18 19 20 21 22 23 24 25 26 27 28 29 30 31 32 33 34 35 36 37 38 39 40 41 42 43 44 45 46 47 48 49 50
000
ASUS43 KMKX 300421
RWRWI

WISCONSIN REGIONAL WEATHER ROUNDUP
NATIONAL WEATHER SERVICE MILWAUKEE/SULLIVAN WI
1100 PM CDT FRI JUL 29 2016

NOTE: "FAIR" INDICATES FEW OR NO CLOUDS BELOW 12,000 FEET WITH NO
SIGNIFICANT WEATHER AND/OR OBSTRUCTIONS TO VISIBILITY.

WIZ001-002-006>008-014>016-023>028-300500-
NORTHWEST WISCONSIN

CITY           SKY/WX    TMP DP  RH WIND       PRES   REMARKS
SUPERIOR ARPT  CLEAR     56  55  99 CALM      30.07S
ASHLAND        CLEAR     54  53  97 CALM      30.07F
HAYWARD        CLEAR     59  54  83 CALM      30.06F
SIREN          NOT AVBL
CUMBERLAND     CLEAR     61  55  82 E3        30.06S
RICE LAKE      CLEAR     61  57  86 N5        30.06F
CHETEK         CLEAR     67  59  77 NE5       30.04F
LADYSMITH      MOCLDY    64  59  83 NE5       30.07F
EAU CLAIRE     CLEAR     65  62  90 CALM      30.02F
MENOMONIE      CLEAR     65  58  77 CALM      30.03F
NEW RICHMOND   MOCLDY    63  59  86 CALM      30.04F
OSCEOLA        MOCLDY    60  60 100 CALM      30.06F
$$

WIZ003>005-009-010-017-018-300500-
NORTH CENTRAL WISCONSIN

CITY           SKY/WX    TMP DP  RH WIND       PRES   REMARKS
MANITOWISH WTR CLEAR     62  56  81 NE6       30.08S
ARBOR VITAE    CLEAR     64  60  86 CALM      30.08S
WOODRUFF       CLEAR     64  60  86 CALM      30.08S
RHINELANDER    CLEAR     58  54  86 CALM      30.08F
EAGLE RIVER    MOCLDY    62  60  95 CALM      30.09S
LAND O LAKES   MOCLDY    65  53  63 E6        30.11R
PHILLIPS       MOCLDY    62  60  92 CALM      30.07S
TOMAHAWK       CLEAR     58  56  94 CALM      30.08S
MEDFORD        CLEAR     60  60 100 E3        30.06F
MERRILL        CLEAR     59  59 100 CALM      30.08S
$$

WIZ029-030-035-036-043>047-300500-
CENTRAL WISCONSIN

CITY           SKY/WX    TMP DP  RH WIND       PRES   REMARKS
WAUSAU         CLEAR     63  60  90 CALM      30.05S
MOSINEE        CLEAR     61  57  88 E6        30.07S
MARSHFIELD     CLEAR     64  60  87 E5        30.04F
STEVENS POINT  PTCLDY    58  57  97 CALM      30.05F
WAUPACA        CLOUDY    66  63  91 CALM      30.03F
WAUTOMA        CLOUDY    67  60  78 NE5       30.03F
WISC RAPIDS    CLEAR     66  59  78 E6        30.05S
CAMP DOUGLAS   MOCLDY    65  64  96 NE2       30.02F
$$

WIZ011>013-019>022-031-037>040-048>050-300500-
NORTHEAST WISCONSIN

CITY           SKY/WX    TMP DP  RH WIND       PRES   REMARKS
ANTIGO         CLEAR     56  55  96 CALM      30.08S
SHAWANO        CLOUDY    70  59  68 NE5       30.05F
OCONTO         CLOUDY    64  60  87 CALM      30.04S
STURGEON BAY   CLEAR     66  57  72 NE5       30.05S
GREEN BAY      CLOUDY    66  58  75 NE8       30.03S
MANITOWOC      MOCLDY    66  60  81 MISG      30.03S
APPLETON       CLOUDY    68  50  52 NE7       30.01F
CLINTONVILLE   CLOUDY    66  55  68 CALM      30.04F
OSHKOSH        CLOUDY    71  54  54 E8        30.02S
$$

WIZ032>034-041-042-053>061-300500-
SOUTHWEST WISCONSIN

CITY           SKY/WX    TMP DP  RH WIND       PRES   REMARKS
LA CROSSE      MOCLDY    68  65  90 N3        30.01S
SPARTA         PTCLDY    62  62  98 CALM      30.03S
VIROQUA        PTCLDY    64  64 100 E3        30.02S
BOSCOBEL       CLEAR     66  64  93 CALM      30.00S FOG
PRAIRIE DU CHI   N/A     67  64  91 CALM      29.99S
PLATTEVILLE    CLEAR     67  67  99 NE6       30.00S
$$

WIZ056-057-062-063-064-067-068-300500-
SOUTH CENTRAL WISCONSIN

CITY           SKY/WX    TMP DP  RH WIND       PRES   REMARKS
REEDSBURG      CLOUDY    67  66  97 E3        30.00F
BARABOO/DELLS  CLOUDY    66  64  93 E5        30.02S FOG
LONE ROCK      PTCLDY    66  63  90 E5        30.01S
MINERAL POINT  PTCLDY    68  66  94 NE5       30.00F
MADISON        PTCLDY    67  60  78 NE6       30.00F
MIDDLETON      CLEAR     67  63  88 CALM      30.01F
WATERTOWN      CLOUDY    67  61  83 NE7       29.99F
MONROE         DRIZZLE   64  64 100 NE8       29.98F
JANESVILLE     CLOUDY    70  63  78 NE6       29.98S
$$

WIZ051-052-058>065-066-070>072-300500-
SOUTHEAST WISCONSIN

CITY           SKY/WX    TMP DP  RH WIND       PRES   REMARKS
MILWAUKEE      CLOUDY    70  65  84 N9        29.98F
WAUKESHA       CLOUDY    64  61  88 CALM      30.00S
MILWAUKEE/TIMM CLOUDY    68  61  77 NE6       29.99F
RACINE         CLOUDY    68  65  90 N7        29.99F
BURLINGTON     CLOUDY    66  64  93 CALM      29.98S
KENOSHA        CLOUDY    69  66  90 NE3       29.98S
FOND DU LAC    CLOUDY    69  56  62 NE6       30.02S
SHEBOYGAN      CLOUDY    66  59  78 NE8       30.01F
WEST BEND      CLOUDY    64  61  88 NE5       30.00F
JUNEAU         CLOUDY    65  61  85 N6        30.02F
$$

LSZ147-162-300500-
LAKE SUPERIOR

STATION/POSITION TIME  TEMP    WIND        PRES    WAVE
                       AIR SEA DIR/SP/G            HT/PER
                 (UTC) (F)     (DEG/KT/KT) (MB)    (FT/S)
W MID LAKE BUOY  0350   64 62  120/  6/  8 1017.6F   1
DEVILS ISLAND    0400   65     110/  2/  3 1018.1S
PORT WING        0340   63     140/  3/  6 1017.9S
SAXON HARBOR     0300   60     190/  3/  3 1017.9R
$$

LMZ867-665-643>646-300500-
LAKE MICHIGAN

STATION/POSITION TIME  TEMP    WIND        PRES    WAVE
                       AIR SEA DIR/SP/G            HT/PER
                 (UTC) (F)     (DEG/KT/KT) (MB)    (FT/S)
CHAMBERS ISLAND  0300   71      50/  8/ 10 1017.3S
S GREEN BAY BUOY 0200   70 70   70/ 12/ 14 1016.5S
N MID LAKE BUOY  0350   70 70   80/ 10/ 12 1016.8F   1/ 3
NORTHPORT PIER   0300   70      70/  5/  6 1017.6R
SISTER BAY       0321   66        CALM       N/A
ALGOMA LAKESHORE 0313           20/  8/ 11   N/A
KEWAUNEE LAKESHO 0300                      1016.5S
SHEBOYGAN LAKESH 0400   66     360/ 10/ 11 1016.2F
PORT WASHINGTON  0300   71      30/  8/ 12 1016.6
ATWATER BUOY     0400   66 62   40/  6/  8 1016.8F
MILWAUKEE LAKESH 0410   68      30/  9/  9   N/A
S MID LAKE BUOY  0350   72 74   70/ 16/ 19 1013.8F   3/ 4
KENOSHA   LAKESH 0400   72      70/  8/  9 1014.6S
$$

TC  - TEMPERATURE IN CELSIUS
VSB - VISIBILITY IN STATUTE MILES
WCI - WIND CHILL INDEX
HX  - HEAT INDEX




USA.gov is the U.S. government's official web portal to all federal, state and local government web resources and services.